Volver al catálogo

ATLAS CENTAUR 2 DEB

ActivoLEO
NORAD 19638·DEBRIS·🇺🇸 United States

Lanzado Nov 27, 1963 desde Cape Canaveral Space Force Station

Loading…

Próximos Pases (próximas 24 horas)

TLE

ActualizadoSource: Space-Track

Época: Sep 14, 2026, 23:37 UTC

1 19638U 63047S   26257.98443404  .00001347  00000-0  32988-2 0  9992
2 19638  31.0158 212.8722 0674737 141.2798 287.3829 12.57188525585952

Sigue ATLAS CENTAUR 2 DEB en tiempo real con AllMySat

Download on the App Store